Flag for U.S.A. Weather past 2 weeks in West Palm Beach, Florida, U.S.A.

Now
67 °F

Broken clouds.


Feels Like: 67 °F
Forecast: 58 / 72 °F
Wind: 10 mph from Northwest

Location: Palm Beach International Airport

Current Time: Mar 28, 2015 at 8:04:50 PM

Latest Report: Mar 28, 2015 at 6:53 PM


Visibility: 10 mi

Pressure: 30.12 "Hg

Humidity: 45%

Dew point: 45 °F

Location of West Palm BeachLocation

Historic Weather in West Palm Beach — Graph

°F

West Palm Beach temperature yesterday

Maximum temperature yesterday: 91 °F (at 12:53 PM)
Minimum temperature yesterday: 67 °F (at 7:53 PM)
Average temperature yesterday: 76 °F

Past Weeks' High & Low Weather Summary

 TemperatureHumidityPressure
High91 °F (Mar 27, 12:53 PM)100% (Mar 15, 6:53 AM)30.18 "Hg (Mar 15, 6:53 AM)
Low59 °F (Mar 28, 6:53 AM)35% (Mar 20, 4:53 PM)29.79 "Hg (Mar 27, 3:53 PM)
Average76 °F73%30.02 "Hg
* Reported Mar 13 6:53 PM — Mar 28 6:53 PM, West Palm Beach, Weather by CustomWeather, © 2015

Note: Actual official high and low records may vary slightly from our data, if they occured in-between our weather recording intervals... More about our weather records

Advertising

West Palm Beach weather history for previous 24 hours

 ConditionsComfort  
Time TempWeatherWind HumidityBarometerVisibility
6:53 PM
Sat, Mar 28
67 °FBroken clouds.10 mph45%30.12 "Hg10 mi
5:53 PM69 °FPartly sunny.9 mph39%30.10 "Hg10 mi
4:53 PM71 °FPartly sunny.16 mph35%30.09 "Hg10 mi
3:53 PM70 °FOvercast.15 mph35%30.11 "Hg10 mi
2:53 PM69 °FHigh level clouds.13 mph38%30.11 "Hg10 mi
1:53 PM69 °FPartly sunny.14 mph38%30.14 "Hg10 mi
12:53 PM70 °FPartly sunny.18 mph37%30.15 "Hg10 mi
11:53 AM67 °FPartly sunny.17 mph41%30.14 "Hg10 mi
10:53 AM65 °FPartly sunny.10 mph44%30.14 "Hg10 mi
9:53 AM62 °FOvercast.17 mph43%30.14 "Hg10 mi
8:53 AM60 °FPartly sunny.15 mph56%30.10 "Hg10 mi
7:53 AM59 °FPassing clouds.10 mph67%30.08 "Hg10 mi
6:53 AM59 °FPassing clouds.10 mph72%30.04 "Hg10 mi
5:53 AM60 °FPassing clouds.13 mph67%30.03 "Hg10 mi
4:53 AM61 °FPassing clouds.9 mph81%30.01 "Hg10 mi
3:53 AM63 °FPassing clouds.10 mph75%30.00 "Hg10 mi
2:53 AM65 °FPassing clouds.16 mph78%29.98 "Hg10 mi
1:53 AM68 °FPassing clouds.14 mph87%29.96 "Hg10 mi
12:53 AM68 °FPassing clouds.13 mph93%29.95 "Hg10 mi
11:53 PM
Fri, Mar 27
68 °FPassing clouds.13 mph90%29.91 "Hg10 mi
10:53 PM68 °FLight rain. Partly cloudy.10 mph90%29.91 "Hg10 mi
9:53 PM67 °FPassing clouds.10 mph93%29.91 "Hg10 mi
8:53 PM67 °FLight rain. Partly cloudy.12 mph93%29.90 "Hg10 mi
Weather by CustomWeather, © 2015

See weather overviewHow to use our weather pages